Weather Roundup
Issued by NWS Chicago, IL

Home | Current Version | Previous Version | Graphics & Text | Print | Product List | Glossary On
Versions: 1 2 3 4 5 6 7 8 9 10 11 12 13 14 15 16 17 18 19 20 21 22 23 24 25 26 27 28 29 30 31 32 33 34 35 36 37 38 39 40 41 42 43 44 45 46 47 48 49 50
000
NZUS59 KLOT 040006
HRRLOT

CHICAGO AREA WEATHER ROUNDUP
NATIONAL WEATHER SERVICE CHICAGO/ROMEOVILLE IL
600 PM CST TUE MAR 03 2015

NOTE: "FAIR" INDICATES FEW OR NO CLOUDS BELOW 12,000 FEET WITH NO
SIGNIFICANT WEATHER AND/OR OBSTRUCTIONS TO VISIBILITY.

* THESE STATIONS ARE NOT UNDER NWS QUALITY CONTROL. THEY ALSO MAY NOT
  REPORT WEATHER SUCH AS PRECIPITATION OR FOG.

ILZ005-006-012>014-019>023-040100-
NORTHEAST ILLINOIS

CITY           SKY/WX    TMP DP  RH WIND       PRES   REMARKS
OHARE          CLOUDY    34  28  79 W16       29.73R WCI  24
6HR MIN TEMP:  32; 6HR MAX TEMP:  34; 6HR PCP: TRACE;

MIDWAY         CLOUDY    36  30  79 W17G23    29.76R
6HR MIN TEMP:  34; 6HR MAX TEMP:  37; 6HR PCP:  0.01;

AURORA         CLOUDY    34  29  82 W14       29.76R WCI  25
6HR MIN TEMP:  33; 6HR MAX TEMP:  35;

LANSING*       CLOUDY    35  30  82 W17       29.75R WCI  24
JOLIET*        CLOUDY    34  30  87 W9        29.77R WCI  26
WAUKEGAN       CLOUDY    33  27  78 W8        29.71R WCI  26
6HR MIN TEMP:  31; 6HR MAX TEMP:  34; 6HR PCP:  0.01;

DUPAGE AIRPORT CLOUDY    33  29  85 W15       29.74R WCI  23
6HR MIN TEMP:  32; 6HR MAX TEMP:  34; 6HR PCP: TRACE;

WHEELING       CLOUDY    34  28  79 W9        29.75R WCI  27
6HR MIN TEMP:  32; 6HR MAX TEMP:  34; 6HR PCP:  0.03;

KANKAKEE*      CLOUDY    34  32  92 W14       29.78R WCI  25
MORRIS*        CLOUDY    34  32  92 W15       29.76R WCI  24
LEWIS AIRPORT* CLOUDY    34  30  86 W14G24    29.76R WCI  24
NORTHERLY IS     N/A     35  29  79 W9          N/A  WCI  28
$$

WIZ051-052-058>065-066-070>072-040100-
SOUTHEAST WISCONSIN

CITY           SKY/WX    TMP DP  RH WIND       PRES   REMARKS
MILWAUKEE      CLOUDY    31  23  72 W15       29.69R WCI  20
6HR MIN TEMP:  31; 6HR MAX TEMP:  34; 6HR PCP: TRACE;

KENOSHA*       CLOUDY    32  26  78 W13G22    29.71R WCI  22
RACINE*        CLOUDY    32  23  69 W10       29.71R WCI  24
BURLINGTON     CLOUDY    29  23  78 W9        29.72R WCI  20
WAUKESHA       CLOUDY    28  23  80 W12G21    29.68R WCI  18
WEST BEND      CLOUDY    28  21  74 W15G23    29.67R WCI  17
$$

INZ001>003-010>013-019-020-040100-
NORTHWEST INDIANA

CITY           SKY/WX    TMP DP  RH WIND       PRES   REMARKS
GARY*          CLOUDY    37  28  70 W12G23    29.75R
MICHIGAN CITY* NOT AVBL
RENSSELAER*    NOT AVBL
VALPARAISO     CLOUDY    34  30  85 W17       29.76R WCI  23
$$

LMZ740>746-040100-
SOUTHERN LAKE MICHIGAN

STATION/POSITION TIME  SKY/WX   TEMP WIND        PRES    VSBY
                                AIR  DIR/SP/G
                 (UTC)          (F)  (DEG/KT/KT) (MB)    (MI)
HARRISON CRIB    0000            35  270/ 21/ 29   N/A
BURNHAM HARBOR   0000            35  260/  9/ 15   N/A
CALUMET HARBOR   0000            35  250/  9/ 12 1005.7R
BURNS HARBOR     NOT AVBL
MICHIGAN CITY    0000            34  250/ 17/ 20   N/A
$$

ABBREVIATIONS USED IN REMARKS
   TC - TEMPERATURE IN CELSIUS
  WCI - WIND CHILL INDEX
   HX - HEAT INDEX
  VSB - VISIBILITY
$$


USA.gov is the U.S. government's official web portal to all federal, state and local government web resources and services.